Orr, MN

6:41 AM CST on February 20, 2017 (GMT -0600)
Orr Regional

Weather History for KORB - January, 2014

Change the Weather History Date:

Monday, January 27, 2014

  Actual Average Record
Temperature  
Mean Temperature -17 °F -  
Max Temperature -9 °F 17 °F 44 °F (2006)
Min Temperature -25 °F 1 °F -25 °F (2014)
Degree Days  
Heating Degree Days 82    
Moisture  
Dew Point -28 °F    
Average Humidity 64    
Maximum Humidity 70    
Minimum Humidity 54    
Precipitation  
Precipitation 0.00 in - - ()
Sea Level Pressure  
Sea Level Pressure 30.10 in    
Wind  
Wind Speed 12 mph (WNW)    
Max Wind Speed 17 mph    
Max Gust Speed 22 mph    
Visibility 9 miles    
Events      
Averages and records for this station are not official NWS values.
T = Trace of Precipitation, MM = Missing Value Source: NWS Daily Summary

Daily Weather History Graph

Daily Weather History Graph

Search for Another Location

Airport or City:

Trip Planner

Search our weather history database for the weather conditions in past years. The results will help you decide how hot, cold, wet, or windy it might be!

Date:

Astronomy

Jan. 27, 2014 Rise Set
Actual Time 7:45 AM CST 5:03 PM CST
Civil Twilight 7:11 AM CST 5:37 PM CST
Nautical Twilight 6:33 AM CST 6:15 PM CST
Astronomical Twilight 5:57 AM CST 6:51 PM CST
Moon 4:30 AM CST (1/27) 1:46 PM CST (1/27)
Length of Visible Light 10h 26m
Length of Day
9h 18m
Waning Crescent, 14% of the Moon is Illuminated
Jan 27
Waning Crescent
Jan 30
New
Feb 6
First Quarter
Feb 14
Full
Feb 22
Last Quarter

Hourly Weather History & Observations

Time (CST) Temp. Windchill Dew Point Humidity Pressure Visibility Wind Dir Wind Speed Gust Speed Precip Events Conditions
12:13 AM -16.6 °F -42.1 °F -25.6 °F 64% 29.90 in 5.0 mi WNW 17.3 mph 21.9 mph N/A   Haze
12:33 AM -18.4 °F -42.9 °F -25.6 °F 70% 29.91 in 5.0 mi WNW 15.0 mph 20.7 mph N/A   Haze
12:53 AM -18.4 °F -42.9 °F -27.4 °F 63% 29.93 in 10.0 mi NW 15.0 mph 19.6 mph N/A   Scattered Clouds
1:13 AM -20.2 °F -44.4 °F -27.4 °F 69% 29.94 in 10.0 mi WNW 13.8 mph 19.6 mph N/A   Clear
1:33 AM -20.2 °F -44.4 °F -27.4 °F 69% 29.93 in 10.0 mi WNW 13.8 mph 18.4 mph N/A   Clear
1:53 AM -20.2 °F -42.4 °F -27.4 °F 69% 29.94 in 10.0 mi NW 11.5 mph - N/A   Clear
2:13 AM -22.0 °F -45.7 °F -29.2 °F 69% 29.96 in 10.0 mi NW 12.7 mph - N/A   Clear
2:33 AM -22.0 °F -45.7 °F -29.2 °F 69% 29.97 in 10.0 mi WNW 12.7 mph 18.4 mph N/A   Clear
2:53 AM -22.0 °F -45.7 °F -29.2 °F 69% 29.98 in 10.0 mi WNW 12.7 mph - N/A   Scattered Clouds
3:13 AM -22.0 °F -46.6 °F -29.2 °F 69% 29.99 in 10.0 mi WNW 13.8 mph 18.4 mph N/A   Mostly Cloudy
3:33 AM -22.0 °F -44.7 °F -29.2 °F 69% 30.00 in 7.0 mi WNW 11.5 mph 18.4 mph N/A   Mostly Cloudy
3:53 AM -23.8 °F -46.9 °F -31.0 °F 69% 30.01 in 10.0 mi WNW 11.5 mph - N/A   Clear
4:13 AM -23.8 °F -45.8 °F -31.0 °F 69% 30.02 in 10.0 mi WNW 10.4 mph 16.1 mph N/A   Clear
4:33 AM -23.8 °F -46.9 °F -31.0 °F 69% 30.03 in 10.0 mi WNW 11.5 mph - N/A   Clear
4:53 AM -23.8 °F -46.9 °F -31.0 °F 69% 30.03 in 10.0 mi WNW 11.5 mph 17.3 mph N/A   Clear
5:13 AM -23.8 °F -48.0 °F -31.0 °F 69% 30.05 in 10.0 mi WNW 12.7 mph 16.1 mph N/A   Clear
5:33 AM -23.8 °F -46.9 °F -31.0 °F 69% 30.05 in 10.0 mi WNW 11.5 mph - N/A   Clear
5:53 AM -23.8 °F -46.9 °F -31.0 °F 69% 30.06 in 10.0 mi WNW 11.5 mph - N/A   Clear
6:13 AM -23.8 °F -49.8 °F -32.8 °F 63% 30.06 in 10.0 mi WNW 15.0 mph 19.6 mph N/A   Clear
6:33 AM -23.8 °F -49.8 °F -32.8 °F 63% 30.07 in 10.0 mi WNW 15.0 mph 19.6 mph N/A   Clear
6:53 AM -23.8 °F -48.0 °F -32.8 °F 63% 30.07 in 10.0 mi WNW 12.7 mph 19.6 mph N/A   Scattered Clouds
7:13 AM -23.8 °F -45.8 °F -32.8 °F 63% 30.08 in 10.0 mi WNW 10.4 mph - N/A   Clear
7:33 AM -25.6 °F -49.2 °F -32.8 °F 69% 30.08 in 10.0 mi WNW 11.5 mph 17.3 mph N/A   Clear
7:53 AM -25.6 °F -50.2 °F -32.8 °F 69% 30.09 in 10.0 mi WNW 12.7 mph - N/A   Clear
8:14 AM -25.6 °F -50.2 °F -32.8 °F 69% 30.09 in 10.0 mi WNW 12.7 mph 21.9 mph N/A   Clear
8:33 AM -23.8 °F -48.9 °F -32.8 °F 63% 30.10 in 5.0 mi WNW 13.8 mph - N/A   Haze
8:53 AM -23.8 °F -46.9 °F -31.0 °F 69% 30.11 in 7.0 mi WNW 11.5 mph 20.7 mph N/A   Clear
9:13 AM -23.8 °F -48.0 °F -31.0 °F 69% 30.12 in 10.0 mi WNW 12.7 mph 17.3 mph N/A   Clear
9:33 AM -22.0 °F -46.6 °F -31.0 °F 63% 30.12 in 7.0 mi WNW 13.8 mph 17.3 mph N/A   Clear
9:53 AM -20.2 °F -43.4 °F -29.2 °F 63% 30.13 in 3.0 mi WNW 12.7 mph 19.6 mph N/A   Haze
10:13 AM -20.2 °F -44.4 °F -29.2 °F 63% 30.14 in 5.0 mi WNW 13.8 mph - N/A   Haze
10:33 AM -18.4 °F -39.1 °F -29.2 °F 58% 30.14 in 10.0 mi WNW 10.4 mph - N/A   Clear
10:53 AM -18.4 °F -37.9 °F -27.4 °F 63% 30.15 in 10.0 mi WNW 9.2 mph 16.1 mph N/A   Clear
11:13 AM -16.6 °F -37.9 °F -27.4 °F 58% 30.15 in 10.0 mi WNW 11.5 mph - N/A   Clear
11:33 AM -16.6 °F -38.9 °F -25.6 °F 64% 30.14 in 10.0 mi WNW 12.7 mph - N/A   Clear
11:53 AM -14.8 °F -35.6 °F -25.6 °F 58% 30.14 in 10.0 mi WNW 11.5 mph - N/A   Clear
12:13 PM -14.8 °F -33.5 °F -25.6 °F 58% 30.14 in 10.0 mi WNW 9.2 mph 16.1 mph N/A   Clear
12:33 PM -14.8 °F -37.5 °F -25.6 °F 58% 30.13 in 10.0 mi WNW 13.8 mph 17.3 mph N/A   Clear
12:53 PM -13.0 °F -36.0 °F -23.8 °F 59% 30.13 in 10.0 mi WNW 15.0 mph 20.7 mph N/A   Clear
1:13 PM -13.0 °F -34.3 °F -23.8 °F 59% 30.12 in 10.0 mi WNW 12.7 mph - N/A   Clear
1:33 PM -11.2 °F -29.0 °F -23.8 °F 54% 30.13 in 10.0 mi NW 9.2 mph - N/A   Clear
1:53 PM -11.2 °F -29.0 °F -22.0 °F 59% 30.13 in 10.0 mi WNW 9.2 mph 17.3 mph N/A   Clear
2:13 PM -9.4 °F -24.3 °F -22.0 °F 54% 30.12 in 10.0 mi West 6.9 mph - N/A   Scattered Clouds
2:33 PM -11.2 °F -31.1 °F -23.8 °F 54% 30.13 in 7.0 mi West 11.5 mph 16.1 mph N/A   Scattered Clouds
2:53 PM -11.2 °F -31.1 °F -23.8 °F 54% 30.14 in 10.0 mi West 11.5 mph 18.4 mph N/A   Scattered Clouds
3:13 PM -11.2 °F -31.1 °F -23.8 °F 54% 30.14 in 7.0 mi WNW 11.5 mph 19.6 mph N/A   Scattered Clouds
3:33 PM -11.2 °F -32.1 °F -23.8 °F 54% 30.15 in 7.0 mi West 12.7 mph 17.3 mph N/A   Mostly Cloudy
3:53 PM -11.2 °F -29.0 °F -23.8 °F 54% 30.15 in 10.0 mi West 9.2 mph 16.1 mph N/A   Scattered Clouds
4:13 PM -13.0 °F -31.3 °F -23.8 °F 59% 30.15 in 10.0 mi West 9.2 mph 16.1 mph N/A   Clear
4:33 PM -14.8 °F -33.5 °F -23.8 °F 64% 30.15 in 10.0 mi West 9.2 mph 19.6 mph N/A   Clear
4:53 PM -14.8 °F -34.6 °F -25.6 °F 58% 30.16 in 10.0 mi West 10.4 mph 20.7 mph N/A   Clear
5:13 PM -14.8 °F -36.6 °F -25.6 °F 58% 30.16 in 10.0 mi West 12.7 mph 18.4 mph N/A   Clear
5:33 PM -16.6 °F -35.7 °F -25.6 °F 64% 30.16 in 10.0 mi West 9.2 mph 17.3 mph N/A   Clear
5:53 PM -16.6 °F -34.4 °F -25.6 °F 64% 30.16 in 10.0 mi West 8.1 mph - N/A   Clear
6:13 PM -16.6 °F -34.4 °F -25.6 °F 64% 30.16 in 10.0 mi West 8.1 mph 16.1 mph N/A   Clear
6:33 PM -16.6 °F -37.9 °F -25.6 °F 64% 30.15 in 10.0 mi WNW 11.5 mph - N/A   Clear
6:53 PM -18.4 °F -36.6 °F -25.6 °F 70% 30.16 in 10.0 mi West 8.1 mph - N/A   Clear
7:13 PM -18.4 °F -35.1 °F -25.6 °F 70% 30.16 in 10.0 mi West 6.9 mph - N/A   Clear
7:33 PM -18.4 °F -36.6 °F -25.6 °F 70% 30.16 in 10.0 mi West 8.1 mph - N/A   Clear
7:53 PM -18.4 °F -37.9 °F -27.4 °F 63% 30.16 in 10.0 mi West 9.2 mph - N/A   Clear
8:13 PM -18.4 °F -39.1 °F -25.6 °F 70% 30.15 in 10.0 mi West 10.4 mph 18.4 mph N/A   Clear
8:33 PM -18.4 °F -40.2 °F -27.4 °F 63% 30.14 in 10.0 mi West 11.5 mph - N/A   Clear
8:53 PM -18.4 °F -36.6 °F -27.4 °F 63% 30.15 in 10.0 mi West 8.1 mph 17.3 mph N/A   Clear
9:13 PM -20.2 °F -41.3 °F -27.4 °F 69% 30.15 in 10.0 mi West 10.4 mph 16.1 mph N/A   Clear
9:33 PM -20.2 °F -40.1 °F -27.4 °F 69% 30.15 in 10.0 mi West 9.2 mph 16.1 mph N/A   Clear
9:53 PM -20.2 °F -40.1 °F -27.4 °F 69% 30.14 in 10.0 mi West 9.2 mph - N/A   Scattered Clouds
10:13 PM -20.2 °F -38.8 °F -27.4 °F 69% 30.15 in 10.0 mi WNW 8.1 mph - N/A   Scattered Clouds
10:33 PM -20.2 °F -41.3 °F -27.4 °F 69% 30.14 in 10.0 mi West 10.4 mph - N/A   Clear
10:53 PM -20.2 °F -40.1 °F -27.4 °F 69% 30.13 in 10.0 mi WNW 9.2 mph - N/A   Clear
11:13 PM -20.2 °F -40.1 °F -27.4 °F 69% 30.13 in 10.0 mi WNW 9.2 mph - N/A   Clear
11:33 PM -20.2 °F -38.8 °F -27.4 °F 69% 30.12 in 10.0 mi West 8.1 mph - N/A   Clear
11:53 PM -20.2 °F -35.5 °F -27.4 °F 69% 30.12 in 10.0 mi West 5.8 mph 9.2 mph N/A   Clear